Вернуться в каталог

FENGYUN 1C DEB

АктивенPO
NORAD 30070·DEBRIS·🇨🇳 China

Запущен May 10, 1999 с Taiyuan Satellite Launch Center

Loading…

Ближайшие Пролёты (ближайшие 24 часа)

TLE

СвежийSource: Space-Track

Эпоха: Sep 14, 2026, 14:32 UTC

1 30070U 99025PX  26257.60610470  .00001482  00000-0  51246-3 0  9997
2 30070  98.2579 301.0530 0322724 244.0335 273.3431 14.11816548997697

Отслеживайте FENGYUN 1C DEB в реальном времени с AllMySat

Download on the App Store